[[{"header":{"parameterUnit":"m.s-1","parameterCategory":1,"la1":30.2991,"la2":30.254,"lo1":-89.0895,"lo2":-89.0444,"dy":0.0017,"dx":0.0017,"nx":28,"ny":28,"refTime":"2024-08-29T09:00:00:Z","depth":0,"parameterNumber":2,"parameterNumberName":"U-component_of_WINDS"},"data":[0,0,0,0,0,0,0,0,0,0,0,0,0,0,0,0,0,0,0,0,0,0,0,0,0,0,0,0,0,0,0,0,0,0,0,0,0,0,0,0,0,0,0,0,0,0,0,0,0,0,0,0,0,0,0,0,0,0,-4.4907,-4.4908,0,-4.4956,-4.4957,-4.4957,-4.4937,-4.4936,-4.4935,-4.4934,-4.4979,-4.4981,-4.4983,0,0,0,0,0,0,0,0,0,0,0,0,0,-4.479,-4.4792,-4.4907,-4.4908,-4.4908,-4.4956,-4.4957,-4.4958,-4.4937,-4.4936,-4.4935,-4.4933,-4.4978,-4.4981,-4.4984,0,0,0,0,0,0,0,0,0,0,0,0,0,-4.484,-4.4793,-4.4907,-4.4904,-4.4904,-4.4956,-4.4957,-4.4958,-4.4938,-4.4936,-4.4934,-4.4933,-4.4977,-4.4981,-4.4984,-4.504,0,0,-4.4994,-4.4996,0,0,0,0,0,0,0,0,-4.4837,-4.4844,-4.4904,-4.4904,-4.4905,-4.4939,-4.4932,-4.4985,-4.4938,-4.4925,-4.4934,-4.4932,-4.4967,-4.4971,-4.4984,-4.5042,-4.5044,-4.4995,-4.4997,-4.4998,-4.4999,0,0,0,0,0,0,0,-4.4834,-4.4842,-4.4926,-4.4905,-4.4905,-4.4899,-4.4904,-4.4942,-4.4955,-4.4926,-4.4925,-4.4931,-4.4967,-4.4981,-4.4985,-4.5044,-4.4995,-4.4998,-4.5,-4.5001,-4.5148,-4.515,0,0,0,0,0,0,-4.4831,-4.4839,-4.4925,-4.4928,-4.4866,-4.4902,-4.4908,-4.493,-4.4954,-4.4957,-4.4932,-4.493,-4.4976,-4.4981,-4.4986,-4.5051,-4.4998,-4.5001,-4.5003,-4.5146,-4.5148,-4.515,0,0,0,0,0,0,-4.4828,-4.4839,-4.4923,-4.4883,-4.4893,-4.4906,-4.4931,-4.4932,-4.4945,-4.4959,-4.4961,-4.4945,-4.4974,-4.4981,-4.5026,-4.5052,-4.5003,-4.5006,-4.5144,-4.5147,-4.5149,-4.5181,0,0,0,0,0,0,-4.4825,-4.4838,-4.4861,-4.4884,-4.4896,-4.4964,-4.4932,-4.4934,-4.4952,-4.4949,-4.4971,-4.4973,-4.4974,-4.5021,-4.503,-4.5056,-4.5009,-4.5142,-4.5145,-4.5148,-4.5178,-4.5185,-4.5191,0,0,0,0,0,-4.4821,-4.4867,-4.4862,-4.4872,-4.4924,-4.4965,-4.4972,-4.4973,-4.4954,-4.4976,-4.4985,-4.4972,-4.5049,-4.5026,-4.5035,-4.5063,-4.514,-4.5144,-4.5148,-4.5175,-4.5183,-4.5191,0,0,0,0,0,0,-4.4844,-4.487,-4.4864,-4.492,-4.4941,-4.4962,-4.4989,-4.4982,-4.5007,-4.5003,-4.5002,-4.5007,-4.5053,-4.5063,-4.5038,-4.5117,-4.5091,-4.5097,-4.5108,-4.5116,-4.5123,-4.5118,-4.5012,0,0,0,0,0,-4.4856,-4.4889,-4.4909,-4.4956,-4.4967,-4.4977,-4.4994,-4.4994,-4.5014,-4.5023,-4.5035,-4.5054,-4.5082,-4.51,-4.5127,-4.518,-4.5183,-4.5204,-4.521,-4.5215,-4.5219,-4.5246,-4.5254,-4.5164,-4.5164,-4.5164,0,0,-4.488,-4.4898,-4.4919,-4.4961,-4.4977,-4.5009,-4.4984,-4.5019,-4.5042,-4.5027,-4.507,-4.508,-4.5101,-4.515,-4.5172,-4.5159,-4.5246,-4.5221,-4.5225,-4.5226,-4.5251,-4.5259,-4.5267,-4.5167,-4.5166,-4.5166,0,0,-4.494,-4.4958,-4.4998,-4.5015,-4.5041,-4.5047,-4.5056,-4.5079,-4.5085,-4.5129,-4.5118,-4.5145,-4.5194,-4.5209,-4.5223,-4.5288,-4.5277,-4.5297,-4.5329,-4.5354,-4.5361,-4.5368,-4.5388,-4.5396,-4.5302,-4.5302,-4.5302,0,-4.4966,-4.5015,-4.5019,-4.5055,-4.5072,-4.5063,-4.5102,-4.5118,-4.515,-4.5161,-4.5147,-4.5208,-4.5222,-4.5272,-4.5288,-4.5301,-4.531,-4.5293,-4.5361,-4.5367,-4.5373,-4.5392,-4.54,-4.5304,-4.5304,-4.5304,-4.5303,0,-4.5044,-4.5079,-4.5108,-4.514,-4.5161,-4.5198,-4.5206,-4.5227,-4.5224,-4.5231,-4.5274,-4.5291,-4.532,-4.5333,-4.5331,-4.5383,-4.5374,-4.5361,-4.5334,-4.5383,-4.5401,-4.5409,-4.5307,-4.5306,-4.5306,-4.5305,0,0,-4.5117,-4.5153,-4.5163,-4.5176,-4.5204,-4.5229,-4.5266,-4.5296,-4.5312,-4.5335,-4.5363,-4.5405,-4.5393,-4.5409,-4.5408,-4.5431,-4.5478,-4.5415,-4.5415,-4.5423,-4.5533,-4.5541,-4.555,-4.5473,-4.5474,-4.5475,-4.5531,0,-4.5176,-4.5241,-4.5246,-4.5303,-4.5333,-4.5325,-4.5356,-4.5375,-4.5383,-4.5408,-4.5416,-4.5445,-4.5428,-4.5437,-4.546,-4.5468,-4.55,-4.5464,-4.5495,-4.5496,-4.5487,-4.5559,-4.5568,-4.5619,-4.5538,-4.5539,-4.554,0,-4.5254,-4.528,-4.5341,-4.5363,-4.5376,-4.5404,-4.543,-4.5456,-4.5477,-4.548,-4.5499,-4.5495,-4.5529,-4.5505,-4.5551,-4.5526,-4.554,-4.5546,-4.5548,-4.5548,-4.5519,-4.5558,-4.5636,-4.5642,-4.5552,-4.5551,-4.555,0,-4.5297,-4.5348,-4.539,-4.5403,-4.543,-4.545,-4.5462,-4.5481,-4.5499,-4.5522,-4.5532,-4.5559,-4.5573,-4.5593,-4.5596,-4.5578,-4.5641,-4.5617,-4.5642,-4.5642,-4.5653,-4.5652,-4.5731,-4.5668,-4.5668,-4.5667,-4.5667,0,-4.536,-4.5397,-4.541,-4.5435,-4.5475,-4.548,-4.5519,-4.5529,-4.5547,-4.5572,-4.5568,-4.5592,-4.5596,-4.562,-4.5623,-4.5658,-4.5666,-4.5668,-4.5667,-4.5666,-4.5665,-4.5672,-4.5667,-4.5669,-4.5669,-4.5669,-4.5668,0,-4.5414,-4.5425,-4.547,-4.5493,-4.5499,-4.5528,-4.5546,-4.5569,-4.5577,-4.561,-4.5618,-4.5629,-4.5658,-4.5663,-4.5697,-4.5698,-4.574,-4.5738,-4.5733,-4.5732,-4.5756,-4.5752,-4.5839,-4.5849,-4.5783,-4.5783,-4.5784,0,-4.5452,-4.548,-4.5507,-4.5525,-4.5538,-4.5567,-4.5585,-4.559,-4.5608,-4.5634,-4.5654,-4.5682,-4.5705,-4.575,-4.576,-4.5785,-4.5781,-4.581,-4.5785,-4.5782,-4.5778,-4.5775,-4.5776,-4.5814,-4.5814,-4.5815,-4.5815,0,-4.5518,-4.5522,-4.5549,-4.5577,-4.5599,-4.5621,-4.5643,-4.5657,-4.5665,-4.5686,-4.5715,-4.5733,-4.5768,-4.5794,-4.582,-4.583,-4.5823,-4.5824,-4.583,-4.5828,-4.5823,-4.5823,-4.5743,-4.5821,-4.582,-4.582,-4.582,-4.5819,-4.5563,-4.5587,-4.5609,-4.5638,-4.5655,-4.5675,-4.5698,-4.5709,-4.5735,-4.5764,-4.5765,-4.5797,-4.5816,-4.5849,-4.5861,-4.5884,-4.5875,-4.5885,-4.5887,-4.5889,-4.589,-4.5822,-4.5889,-4.5889,-4.5889,-4.5889,-4.5889,0,-4.5626,-4.564,-4.5667,-4.5698,-4.572,-4.5715,-4.5738,-4.5756,-4.5785,-4.5804,-4.5827,-4.586,-4.5886,-4.5899,-4.5924,-4.594,-4.5937,-4.5946,-4.5943,-4.5945,-4.5898,-4.5888,-4.5948,-4.5948,-4.5948,-4.5948,-4.5948,-4.5948,-4.5661,-4.57,-4.5706,-4.5753,-4.5767,-4.5799,-4.5812,-4.5829,-4.5844,-4.5882,-4.5904,-4.5913,-4.5929,-4.5955,-4.5978,-4.5981,-4.5989,-4.5999,-4.6,-4.5955,-4.5949,-4.5943,-4.5934,-4.6001,-4.6001,-4.6044,-4.6045,-4.6045]},{"header":{"parameterUnit":"m.s-1","parameterCategory":1,"la1":30.2991,"la2":30.254,"lo1":-89.0895,"lo2":-89.0444,"dy":0.0017,"dx":0.0017,"nx":28,"ny":28,"refTime":"2024-08-29T09:00:00:Z","depth":0,"parameterNumber":3,"parameterNumberName":"V-component_of_WINDS"},"data":[0,0,0,0,0,0,0,0,0,0,0,0,0,0,0,0,0,0,0,0,0,0,0,0,0,0,0,0,0,0,0,0,0,0,0,0,0,0,0,0,0,0,0,0,0,0,0,0,0,0,0,0,0,0,0,0,0,0,5.5096,5.5096,0,5.5098,5.5098,5.5099,5.4967,5.4963,5.496,5.4956,5.496,5.4963,5.4967,0,0,0,0,0,0,0,0,0,0,0,0,0,5.4977,5.498,5.5096,5.5096,5.5096,5.5098,5.5098,5.5099,5.4967,5.4963,5.4959,5.4955,5.4959,5.4963,5.4967,0,0,0,0,0,0,0,0,0,0,0,0,0,5.5009,5.4981,5.5096,5.5031,5.5025,5.5098,5.5099,5.5099,5.4968,5.4963,5.4958,5.4953,5.4958,5.4963,5.4968,5.5104,0,0,5.4983,5.4985,0,0,0,0,0,0,0,0,5.5008,5.5014,5.5041,5.5036,5.5029,5.5027,5.5058,5.51,5.497,5.499,5.4956,5.495,5.4987,5.4989,5.5001,5.5104,5.5104,5.4983,5.4986,5.4989,5.499,0,0,0,0,0,0,0,5.5006,5.5013,5.5097,5.5041,5.5034,5.5001,5.5,5.5065,5.5018,5.4988,5.4978,5.498,5.4983,5.4996,5.5,5.5104,5.4983,5.4988,5.4991,5.4993,5.5315,5.532,0,0,0,0,0,0,5.5012,5.5012,5.5097,5.5097,5.5005,5.5008,5.5006,5.5033,5.5017,5.5009,5.4985,5.4974,5.499,5.4994,5.5,5.5155,5.4989,5.4993,5.4996,5.531,5.5316,5.5322,0,0,0,0,0,0,5.501,5.5021,5.5097,5.5052,5.5059,5.5015,5.5046,5.5036,5.5049,5.5014,5.5005,5.5008,5.4986,5.4993,5.5078,5.5154,5.4996,5.5,5.5303,5.5312,5.5319,5.547,0,0,0,0,0,0,5.5007,5.5021,5.5073,5.5054,5.5062,5.5176,5.5051,5.504,5.5058,5.5044,5.5033,5.5027,5.4983,5.5071,5.5083,5.5158,5.5004,5.5296,5.5307,5.5317,5.5458,5.5483,5.5504,0,0,0,0,0,5.5004,5.5117,5.5076,5.5087,5.5126,5.5181,5.5185,5.5132,5.5065,5.5116,5.5093,5.5027,5.5144,5.5081,5.5093,5.5171,5.5291,5.5304,5.5316,5.5448,5.5478,5.5503,0,0,0,0,0,0,5.5147,5.5113,5.5068,5.5178,5.5183,5.5158,5.5221,5.5166,5.519,5.5177,5.511,5.5108,5.5204,5.5196,5.5126,5.53,5.5205,5.5221,5.5302,5.533,5.5352,5.5352,5.5008,0,0,0,0,0,5.5191,5.5239,5.5206,5.5307,5.5311,5.5266,5.5288,5.5247,5.5249,5.5251,5.5234,5.5239,5.5276,5.5303,5.5336,5.5457,5.5451,5.5516,5.5538,5.5557,5.5571,5.5632,5.566,5.5363,5.5363,5.5363,0,0,5.5284,5.5271,5.5305,5.5335,5.5334,5.5384,5.5269,5.5327,5.5363,5.526,5.5338,5.5326,5.5328,5.5431,5.5475,5.5427,5.5652,5.5573,5.5588,5.5592,5.5648,5.5676,5.5701,5.5372,5.537,5.5369,0,0,5.5477,5.5473,5.5555,5.5555,5.5554,5.5523,5.5543,5.5525,5.5513,5.5591,5.5513,5.5555,5.5622,5.5625,5.5635,5.5826,5.5766,5.5839,5.5957,5.6017,5.604,5.6061,5.6127,5.6152,5.5853,5.5854,5.5854,0,5.5593,5.5664,5.5604,5.5666,5.5681,5.5588,5.5669,5.5673,5.5683,5.5695,5.5641,5.572,5.5715,5.5816,5.5862,5.5874,5.5893,5.584,5.6042,5.6062,5.608,5.6142,5.6168,5.5862,5.5861,5.586,5.586,0,5.5805,5.5855,5.5921,5.5931,5.5953,5.6025,5.5975,5.6004,5.596,5.5935,5.6014,5.6003,5.6031,5.6052,5.6011,5.6147,5.6116,5.6054,5.5957,5.6118,5.6175,5.6199,5.5875,5.5872,5.5869,5.5867,0,0,5.6091,5.6064,5.6089,5.6091,5.6082,5.6119,5.6186,5.6212,5.6237,5.6247,5.63,5.6357,5.6298,5.631,5.6267,5.632,5.6469,5.625,5.6248,5.6289,5.6617,5.6664,5.6692,5.6429,5.6433,5.6437,5.6616,0,5.6277,5.6388,5.6334,5.6452,5.6496,5.6407,5.6465,5.6465,5.6442,5.6476,5.6451,5.6492,5.6411,5.6417,5.6465,5.6441,5.6534,5.6428,5.6477,5.648,5.6479,5.6723,5.6773,5.6943,5.6638,5.6642,5.6645,0,5.6509,5.6526,5.6648,5.6626,5.6643,5.6696,5.6713,5.6748,5.6745,5.6725,5.6737,5.6681,5.6744,5.6648,5.6733,5.6662,5.6679,5.667,5.6675,5.6677,5.6572,5.673,5.6996,5.7021,5.668,5.6677,5.6675,0,5.6703,5.6757,5.6835,5.684,5.6818,5.6856,5.6849,5.6841,5.6859,5.6875,5.6885,5.6909,5.6922,5.6941,5.6893,5.6828,5.6984,5.6885,5.6968,5.6969,5.7005,5.7003,5.7276,5.7018,5.7017,5.7017,5.7016,0,5.6916,5.6994,5.6921,5.697,5.7053,5.699,5.7074,5.7057,5.7051,5.7094,5.7019,5.7061,5.6995,5.703,5.6993,5.7068,5.7075,5.706,5.7049,5.7066,5.7068,5.7076,5.7063,5.7024,5.7022,5.7021,5.702,0,5.7148,5.7102,5.7182,5.7153,5.7147,5.721,5.7185,5.7229,5.7199,5.7255,5.7264,5.7219,5.7256,5.721,5.7244,5.7219,5.732,5.7293,5.7321,5.7313,5.7398,5.739,5.7684,5.7719,5.744,5.7443,5.7445,0,5.7286,5.7343,5.7319,5.7342,5.7338,5.7376,5.7393,5.7332,5.7353,5.7352,5.7396,5.7426,5.7448,5.7512,5.7482,5.7507,5.7479,5.758,5.7482,5.7497,5.7479,5.7475,5.748,5.76,5.7603,5.7606,5.7608,0,5.7536,5.751,5.7536,5.7555,5.7576,5.7589,5.7595,5.7618,5.7554,5.7581,5.7617,5.7634,5.7667,5.7698,5.7714,5.7706,5.7647,5.7639,5.7659,5.7677,5.7691,5.7683,5.7374,5.7633,5.763,5.7629,5.7627,5.7626,5.7724,5.7769,5.7759,5.779,5.7787,5.7794,5.7833,5.7807,5.7836,5.7856,5.7819,5.7865,5.7858,5.7873,5.7872,5.7907,5.7863,5.7894,5.7901,5.7909,5.7921,5.7686,5.791,5.7909,5.7909,5.7908,5.7907,0,5.7969,5.7957,5.7986,5.7995,5.802,5.7959,5.7962,5.7987,5.8028,5.8026,5.8047,5.8088,5.8117,5.8089,5.8112,5.8145,5.8119,5.8154,5.815,5.8149,5.796,5.7939,5.8175,5.8175,5.8175,5.8174,5.8174,5.8174,5.8099,5.8172,5.8144,5.8213,5.82,5.8243,5.8249,5.8255,5.8253,5.8301,5.8324,5.8304,5.8291,5.8313,5.8337,5.8327,5.8339,5.8384,5.8365,5.8189,5.8163,5.8138,5.8118,5.8387,5.8388,5.8551,5.8553,5.8554]}]]